Leuchars, United Kingdom

4:39 PM BST on May 21, 2018 (GMT +0100)
Leuchars Air Base

Weather History for EGQL - January, 2013

Change the Weather History Date:

Tuesday, January 29, 2013

  Actual Average Record
Temperature  
Mean Temperature 46 °F -  
Max Temperature 51 °F 44 °F 51 °F (2000)
Min Temperature 42 °F 33 °F 26 °F (2009)
Degree Days  
Heating Degree Days 18    
Moisture  
Dew Point 39 °F    
Average Humidity 77    
Maximum Humidity 93    
Minimum Humidity 52    
Precipitation  
Precipitation 0.16 in - - ()
Sea Level Pressure  
Sea Level Pressure 29.10 in    
Wind  
Wind Speed 19 mph ()    
Max Wind Speed 37 mph    
Max Gust Speed 51 mph    
Visibility 7.2 miles    
Events Rain    
Averages and records for this station are not official NWS values.
T = Trace of Precipitation, MM = Missing Value Source: Averaged Metar Reports

Daily Weather History Graph

Daily Weather History Graph

Search for Another Location

Airport or City:

Astronomy

Jan. 29, 2013 Rise Set
Actual Time 8:13 AM GMT 4:36 PM GMT
Civil Twilight 7:31 AM GMT 5:18 PM GMT
Nautical Twilight 6:45 AM GMT 6:04 PM GMT
Astronomical Twilight 6:01 AM GMT 6:48 PM GMT
Moon 8:00 PM GMT (1/29) 8:25 AM GMT (1/29)
Length of Visible Light 9h 47m
Length of Day
8h 23m
Waning Gibbous, 95% of the Moon is Illuminated
Jan 29
Waning Gibbous
Feb 3
Last Quarter
Feb 10
New
Feb 17
First Quarter
Feb 25
Full

Hourly Weather History & Observations

Time (GMT) Temp. Windchill Dew Point Humidity Pressure Visibility Wind Dir Wind Speed Gust Speed Precip Events Conditions
12:50 AM 44.6 °F 36.1 °F 41.0 °F 87% 28.97 in 6.2 mi WSW 21.9 mph - N/A   Partly Cloudy
1:50 AM 44.6 °F 35.9 °F 41.0 °F 87% 29.03 in 6.2 mi West 23.0 mph - N/A   Partly Cloudy
2:50 AM 45 °F - 40 °F 75% 29.09 in 31 mi West 20.7 mph - -   Scattered Clouds
2:50 AM 44.6 °F 36.4 °F 39.2 °F 81% 29.09 in 6.2 mi West 20.7 mph - N/A   Partly Cloudy
3:50 AM 44.6 °F 36.6 °F 37.4 °F 76% 29.12 in 6.2 mi WNW 19.6 mph - N/A   Partly Cloudy
4:50 AM 44.6 °F 35.5 °F 35.6 °F 71% 29.18 in 6.2 mi West 25.3 mph - N/A   Partly Cloudy
5:50 AM 43 °F - 37 °F 72% 29.20 in 31 mi WSW 26.5 mph - -   Scattered Clouds
5:50 AM 42.8 °F 32.9 °F 37.4 °F 81% 29.18 in 6.2 mi WSW 26.5 mph - N/A   Mostly Cloudy
6:50 AM 44.6 °F 35.9 °F 37.4 °F 76% 29.24 in 6.2 mi West 23.0 mph - N/A   Mostly Cloudy
7:50 AM 44.6 °F 37.8 °F 37.4 °F 76% 29.27 in 6.2 mi West 15.0 mph - N/A   Mostly Cloudy
8:50 AM 44 °F - 38 °F 74% 29.29 in 16 mi West 18.4 mph - -   Scattered Clouds
8:50 AM 44.6 °F 36.9 °F 39.2 °F 81% 29.27 in 6.2 mi West 18.4 mph - N/A   Mostly Cloudy
9:50 AM 44.6 °F 37.2 °F 39.2 °F 81% 29.27 in 6.2 mi West 17.3 mph - N/A   Mostly Cloudy
10:50 AM 44.6 °F 39.7 °F 39.2 °F 81% 29.27 in 6.2 mi West 9.2 mph - N/A   Mostly Cloudy
11:50 AM 44 °F - 39 °F 77% 29.28 in 16 mi SSW 10.4 mph - -   Scattered Clouds
11:50 AM 44.6 °F 39.2 °F 39.2 °F 81% 29.27 in 6.2 mi SSW 10.4 mph - N/A   Mostly Cloudy
12:50 PM 44.6 °F 40.7 °F 39.2 °F 81% 29.21 in 6.2 mi SE 6.9 mph - N/A   Mostly Cloudy
1:50 PM 44.6 °F 38.4 °F 41.0 °F 87% 29.15 in 6.2 mi SSE 12.7 mph - N/A Rain Light Rain
2:21 PM 44.6 °F 37.8 °F 41.0 °F 87% 29.09 in 3.7 mi SSE 15.0 mph - N/A Rain Light Rain
2:50 PM 44 °F - 42 °F 88% 29.08 in 4 mi SSE 17.3 mph - - Rain Light Rain
2:50 PM 44.6 °F 37.2 °F 41.0 °F 87% 29.06 in 5.6 mi SSE 17.3 mph - N/A Rain Light Rain
3:50 PM 44.6 °F 38.4 °F 42.8 °F 93% 28.97 in 6.2 mi SSE 12.7 mph - N/A Rain Rain
4:50 PM 48.2 °F - 44.6 °F 87% 28.91 in 6.2 mi South 19.6 mph - N/A Rain Light Rain
5:50 PM 51 °F - 48 °F 87% 28.93 in 12 mi SW 27.6 mph - - Rain Rain
5:50 PM 51.8 °F - 48.2 °F 88% 28.91 in 6.2 mi SW 27.6 mph - N/A Rain Rain
6:50 PM 48.2 °F - 39.2 °F 71% 28.94 in 6.2 mi WSW 28.8 mph 41.4 mph N/A   Scattered Clouds
7:50 PM 46.4 °F 37.5 °F 35.6 °F 66% 28.97 in 6.2 mi WSW 27.6 mph 39.1 mph N/A   Scattered Clouds
8:50 PM 46 °F - 35 °F 55% 29.00 in 16 mi WSW 34.5 mph - - Rain Light Rain Showers
8:50 PM 46.4 °F 36.5 °F 35.6 °F 66% 28.97 in 6.2 mi WSW 34.5 mph 50.6 mph N/A   Scattered Clouds
9:50 PM 44.6 °F 33.8 °F 35.6 °F 71% 29.00 in 6.2 mi WSW 36.8 mph 48.3 mph N/A Rain Light Rain Showers
10:50 PM 44.6 °F 34.1 °F 32.0 °F 61% 29.00 in 6.2 mi WSW 34.5 mph 46.0 mph N/A   Partly Cloudy
11:50 PM 45 °F - 33 °F 52% 29.05 in 31 mi WSW 32.2 mph - -   Partly Cloudy
11:50 PM 44.6 °F 34.4 °F 33.8 °F 66% 29.03 in 6.2 mi WSW 32.2 mph - N/A   Partly Cloudy